| time (UTC) | temp F | wind direction | speed knots | gust knots | rain 1hr in | rain 24hr in | rain mn in | humidity % | barometer mb |
| 20260507100342 | 70 | 237 | 1.7 | 7.0 | 0.00 | 0.87 | 0.01 | 60 | 1011.2 |
| 20260507095823 | 71 | 282 | 5.2 | 7.0 | 0.00 | 0.87 | 0.01 | 60 | 1011.2 |
| 20260507095411 | 71 | 249 | 1.7 | 7.0 | 0.00 | 0.87 | 0.01 | 60 | 1011.2 |
| 20260507094839 | 70 | 242 | 1.7 | 5.2 | 0.00 | 0.87 | 0.01 | 61 | 1011.2 |
| 20260507094319 | 70 | 253 | 0.0 | 6.1 | 0.00 | 0.87 | 0.01 | 61 | 1011.2 |
| 20260507093846 | 70 | 273 | 3.5 | 7.0 | 0.00 | 0.87 | 0.01 | 60 | 1011.2 |
| 20260507092841 | 69 | 263 | 3.5 | 7.0 | 0.00 | 0.87 | 0.01 | 63 | 1011.1 |
| 20260507092342 | 70 | 263 | 0.0 | 6.1 | 0.00 | 0.87 | 0.01 | 64 | 1011.1 |
| 20260507091905 | 70 | 263 | 2.6 | 6.1 | 0.00 | 0.87 | 0.01 | 65 | 1011.2 |
| 20260507091406 | 69 | 270 | 0.9 | 5.2 | 0.00 | 0.87 | 0.01 | 64 | 1011.2 |
| 20260507090905 | 68 | 273 | 0.0 | 3.5 | 0.00 | 0.87 | 0.01 | 64 | 1011.2 |
| 20260507090347 | 68 | 273 | 0.0 | 3.5 | 0.00 | 0.91 | 0.01 | 67 | 1011.2 |
| 20260507085848 | 67 | 274 | 0.0 | 0.0 | 0.00 | 0.91 | 0.01 | 74 | 1011.2 |
| 20260507085327 | 67 | 274 | 0.0 | 4.3 | 0.00 | 0.91 | 0.01 | 74 | 1011.2 |
| 20260507084828 | 67 | 274 | 0.0 | 4.3 | 0.00 | 0.91 | 0.01 | 74 | 1011.1 |
| 20260507083843 | 67 | 281 | 2.6 | 5.2 | 0.00 | 0.91 | 0.01 | 71 | 1011.1 |
| 20260507083322 | 68 | 275 | 0.9 | 3.5 | 0.00 | 0.91 | 0.01 | 73 | 1011.1 |
| 20260507082843 | 67 | 279 | 2.6 | 6.1 | 0.00 | 0.91 | 0.01 | 73 | 1011.1 |
| 20260507082314 | 67 | 279 | 2.6 | 6.1 | 0.00 | 0.91 | 0.01 | 73 | 1011.1 |
| 20260507081838 | 67 | 281 | 1.7 | 5.2 | 0.00 | 0.91 | 0.01 | 76 | 1011.1 |
| 20260507081401 | 66 | 284 | 0.0 | 4.3 | 0.00 | 0.91 | 0.01 | 78 | 1011.1 |
| 20260507080900 | 66 | 284 | 0.0 | 6.1 | 0.00 | 0.91 | 0.01 | 77 | 1011.1 |
| 20260507080406 | 66 | 283 | 3.5 | 6.1 | 0.00 | 0.91 | 0.01 | 78 | 1011.0 |
| 20260507075906 | 66 | 67 | 0.0 | 4.3 | 0.00 | 0.91 | 0.01 | 80 | 1011.0 |
| 20260507075325 | 66 | 67 | 0.0 | 4.3 | 0.00 | 0.91 | 0.01 | 80 | 1011.0 |
| 20260507074828 | 67 | 76 | 0.0 | 3.5 | 0.00 | 0.91 | 0.01 | 82 | 1010.9 |
| 20260507074316 | 67 | 76 | 1.7 | 4.3 | 0.00 | 0.91 | 0.01 | 83 | 1010.9 |
| 20260507073838 | 66 | 78 | 1.7 | 4.3 | 0.00 | 0.91 | 0.01 | 84 | 1010.9 |
| 20260507073343 | 66 | 78 | 0.0 | 0.0 | 0.00 | 0.91 | 0.01 | 88 | 1010.8 |
| 20260507072845 | 65 | 78 | 0.0 | 0.0 | 0.00 | 0.91 | 0.01 | 89 | 1010.8 |
| 20260507072349 | 64 | 78 | 0.0 | 0.0 | 0.00 | 0.91 | 0.01 | 91 | 1010.8 |
| 20260507071320 | 63 | 78 | 0.0 | 0.0 | 0.00 | 0.91 | 0.01 | 92 | 1010.7 |
| 20260507070821 | 64 | 78 | 0.0 | 0.0 | 0.00 | 0.91 | 0.01 | 93 | 1010.7 |
| 20260507070326 | 63 | 78 | 0.0 | 0.0 | 0.00 | 0.91 | 0.01 | 94 | 1010.7 |
| 20260507065826 | 63 | 78 | 0.0 | 0.0 | 0.00 | 0.91 | 0.01 | 95 | 1010.7 |
| 20260507065327 | 62 | 78 | 0.0 | 0.0 | 0.00 | 0.91 | 0.01 | 95 | 1010.7 |
| 20260507064830 | 62 | 78 | 0.0 | 3.5 | 0.00 | 0.91 | 0.01 | 96 | 1010.6 |
| 20260507064311 | 61 | 78 | 0.0 | 3.5 | 0.00 | 0.91 | 0.01 | 96 | 1010.6 |
| 20260507063818 | 60 | 82 | 0.0 | 0.0 | 0.00 | 0.91 | 0.01 | 96 | 1010.6 |
| 20260507063322 | 60 | 82 | 0.0 | 0.0 | 0.00 | 0.91 | 0.01 | 96 | 1010.6 |
| 20260507062822 | 59 | 82 | 0.0 | 0.0 | 0.00 | 0.91 | 0.01 | 96 | 1010.6 |
| 20260507062346 | 60 | 82 | 0.0 | 0.0 | 0.00 | 0.91 | 0.01 | 96 | 1010.6 |
| 20260507061826 | 59 | 82 | 0.0 | 0.0 | 0.00 | 0.91 | 0.01 | 96 | 1010.6 |
| 20260507061350 | 59 | 82 | 0.0 | 0.0 | 0.00 | 0.91 | 0.01 | 96 | 1010.6 |
| 20260507060820 | 59 | 82 | 0.0 | 0.0 | 0.00 | 0.91 | 0.01 | 96 | 1010.6 |
| 20260507060410 | 59 | 82 | 0.0 | 0.0 | 0.00 | 0.94 | 0.01 | 96 | 1010.6 |
| 20260507055838 | 59 | 82 | 0.0 | 0.0 | 0.00 | 0.94 | 0.01 | 96 | 1010.6 |
| 20260507055326 | 59 | 82 | 0.0 | 0.0 | 0.00 | 0.94 | 0.01 | 96 | 1010.6 |
| 20260507054853 | 59 | 82 | 0.0 | 0.0 | 0.00 | 0.94 | 0.01 | 96 | 1010.4 |
| 20260507054332 | 59 | 82 | 0.0 | 0.0 | 0.00 | 0.94 | 0.01 | 96 | 1010.4 |
| 20260507053815 | 59 | 82 | 0.0 | 0.0 | 0.00 | 0.94 | 0.01 | 96 | 1010.4 |
| 20260507053406 | 59 | 82 | 0.0 | 0.0 | 0.00 | 0.94 | 0.01 | 96 | 1010.1 |
| 20260507052825 | 59 | 82 | 0.0 | 0.0 | 0.00 | 0.94 | 0.01 | 96 | 1010.1 |
| 20260507052325 | 59 | 82 | 0.0 | 0.0 | 0.00 | 0.94 | 0.01 | 96 | 1010.1 |
| 20260507051343 | 58 | 89 | 0.0 | 0.0 | 0.00 | 0.94 | 0.01 | 96 | 1010.1 |
| 20260507050812 | 58 | 89 | 0.0 | 0.0 | 0.00 | 0.94 | 0.01 | 96 | 1010.1 |
| 20260507050341 | 58 | 89 | 0.0 | 0.0 | 0.00 | 0.98 | 0.01 | 96 | 1009.9 |
| 20260507045847 | 58 | 89 | 0.0 | 0.0 | 0.00 | 0.98 | 0.01 | 96 | 1009.9 |
| 20260507045330 | 58 | 89 | 0.0 | 0.0 | 0.00 | 0.98 | 0.01 | 96 | 1009.9 |
| 20260507044910 | 58 | 89 | 0.0 | 0.0 | 0.00 | 0.98 | 0.01 | 96 | 1009.6 |
| 20260507044352 | 58 | 89 | 0.0 | 0.0 | 0.00 | 0.98 | 0.01 | 96 | 1009.6 |
| 20260507043816 | 58 | 89 | 0.0 | 0.0 | 0.00 | 0.98 | 0.01 | 96 | 1009.6 |
| 20260507043316 | 58 | 89 | 0.0 | 0.0 | 0.00 | 0.98 | 0.01 | 96 | 1009.5 |
| 20260507042346 | 58 | 89 | 0.0 | 0.0 | 0.00 | 0.98 | 0.01 | 96 | 1009.5 |
| 20260507041812 | 58 | 89 | 0.0 | 0.0 | 0.00 | 0.98 | 0.01 | 96 | 1009.2 |
| 20260507041339 | 58 | 89 | 0.0 | 0.0 | 0.00 | 0.98 | 0.01 | 96 | 1009.2 |
| 20260507040924 | 58 | 89 | 0.0 | 0.0 | 0.00 | 0.98 | 0.01 | 96 | 1009.2 |
| 20260507040408 | 58 | 89 | 0.0 | 0.0 | 0.00 | 0.98 | 0.01 | 96 | 1009.1 |
| 20260507035906 | 58 | 89 | 0.0 | 0.0 | 0.00 | 0.98 | 0.01 | 96 | 1009.1 |
| 20260507035327 | 58 | 89 | 0.0 | 0.0 | 0.04 | 0.98 | 0.01 | 96 | 1009.1 |
| 20260507034914 | 58 | 89 | 0.0 | 0.0 | 0.04 | 0.98 | 0.01 | 96 | 1009.1 |
| 20260507034354 | 58 | 89 | 0.0 | 0.0 | 0.04 | 0.98 | 0.01 | 96 | 1009.1 |
| 20260507033934 | 58 | 89 | 0.0 | 0.0 | 0.04 | 0.98 | 0.01 | 96 | 1009.1 |
| 20260507033412 | 58 | 89 | 0.0 | 0.0 | 0.04 | 0.98 | 0.01 | 96 | 1009.1 |
| 20260507032814 | 58 | 98 | 0.0 | 0.0 | 0.04 | 0.98 | 0.01 | 96 | 1009.1 |
| 20260507032338 | 58 | 98 | 0.0 | 0.0 | 0.04 | 0.98 | 0.01 | 96 | 1009.1 |
| 20260507031819 | 58 | 98 | 0.0 | 0.0 | 0.04 | 0.98 | 0.01 | 96 | 1009.0 |
| 20260507031323 | 58 | 98 | 0.0 | 0.0 | 0.04 | 0.98 | 0.01 | 96 | 1009.0 |
| 20260507030829 | 58 | 98 | 0.0 | 0.0 | 0.04 | 0.98 | 0.01 | 96 | 1009.0 |
| 20260507025859 | 58 | 98 | 0.0 | 0.0 | 0.04 | 0.98 | 0.01 | 96 | 1009.0 |
| 20260507025318 | 58 | 102 | 0.0 | 0.0 | 0.00 | 0.94 | 0.00 | 96 | 1009.0 |
| 20260507024841 | 58 | 105 | 0.0 | 0.0 | 0.00 | 0.94 | 0.00 | 95 | 1009.1 |
| 20260507024323 | 58 | 105 | 0.0 | 0.0 | 0.00 | 0.94 | 0.00 | 95 | 1009.1 |
| 20260507023904 | 58 | 105 | 0.0 | 0.0 | 0.00 | 0.94 | 0.00 | 95 | 1009.1 |
| 20260507023323 | 58 | 105 | 0.0 | 0.0 | 0.00 | 0.94 | 0.00 | 95 | 1009.2 |
| 20260507022823 | 58 | 106 | 0.0 | 0.0 | 0.00 | 0.94 | 0.00 | 95 | 1009.2 |
| 20260507022408 | 58 | 107 | 0.0 | 0.0 | 0.00 | 0.94 | 0.00 | 95 | 1009.2 |
| 20260507021848 | 58 | 117 | 0.0 | 0.0 | 0.00 | 0.94 | 0.00 | 95 | 1009.0 |
| 20260507021350 | 57 | 117 | 0.0 | 0.0 | 0.00 | 0.94 | 0.00 | 96 | 1009.0 |
| 20260507020910 | 57 | 117 | 0.0 | 0.0 | 0.00 | 0.94 | 0.00 | 96 | 1009.0 |
| 20260507020335 | 57 | 117 | 0.0 | 0.0 | 0.00 | 0.94 | 0.00 | 95 | 1009.0 |
| 20260507015815 | 57 | 117 | 0.0 | 0.0 | 0.00 | 0.94 | 0.00 | 95 | 1009.0 |
| 20260507015436 | 57 | 117 | 0.0 | 0.0 | 0.00 | 0.94 | 0.00 | 95 | 1009.0 |
| 20260507014814 | 57 | 117 | 0.0 | 0.0 | 0.00 | 0.94 | 0.00 | 95 | 1009.0 |
| 20260507014317 | 57 | 117 | 0.0 | 0.0 | 0.00 | 0.94 | 0.00 | 95 | 1009.0 |
| 20260507013329 | 57 | 117 | 0.0 | 0.0 | 0.00 | 0.94 | 0.00 | 95 | 1009.0 |
| 20260507012830 | 57 | 117 | 0.0 | 0.0 | 0.00 | 0.94 | 0.00 | 95 | 1009.0 |
| 20260507012352 | 57 | 117 | 0.0 | 0.0 | 0.00 | 0.94 | 0.00 | 95 | 1009.0 |
| 20260507011914 | 57 | 117 | 0.0 | 0.0 | 0.00 | 0.94 | 0.00 | 95 | 1009.0 |
| 20260507011353 | 57 | 117 | 0.0 | 0.0 | 0.00 | 0.94 | 0.00 | 95 | 1009.0 |
| 20260507010933 | 57 | 117 | 0.0 | 0.0 | 0.00 | 0.94 | 0.00 | 95 | 1009.0 |
| 20260507005907 | 57 | 117 | 0.0 | 0.0 | 0.00 | 0.94 | 0.00 | 95 | 1009.0 |
| 20260507005326 | 57 | 117 | 0.0 | 0.0 | 0.00 | 0.94 | 0.00 | 95 | 1009.0 |
| 20260507004853 | 57 | 117 | 0.0 | 0.0 | 0.00 | 0.94 | 0.00 | 95 | 1009.0 |
| 20260507004313 | 57 | 117 | 0.0 | 0.0 | 0.00 | 0.94 | 0.00 | 95 | 1009.0 |
| 20260507003904 | 57 | 117 | 0.0 | 0.0 | 0.00 | 0.94 | 0.00 | 95 | 1009.0 |
| 20260507003332 | 57 | 117 | 0.0 | 0.0 | 0.00 | 0.94 | 0.00 | 95 | 1008.9 |
| 20260507002849 | 57 | 117 | 0.0 | 0.0 | 0.00 | 0.94 | 0.00 | 95 | 1008.9 |
| 20260507002328 | 57 | 117 | 0.0 | 0.0 | 0.00 | 0.94 | 0.00 | 95 | 1008.9 |
| 20260507001829 | 57 | 117 | 0.0 | 0.0 | 0.00 | 0.94 | 0.00 | 95 | 1009.0 |
| 20260507001310 | 58 | 117 | 0.0 | 0.0 | 0.00 | 0.94 | 0.00 | 95 | 1009.0 |
| 20260507000838 | 58 | 117 | 0.0 | 0.0 | 0.00 | 0.94 | 0.00 | 95 | 1009.0 |
| 20260507000343 | 58 | 117 | 0.0 | 0.0 | 0.00 | 0.94 | 0.00 | 95 | 1009.0 |
| 20260506235824 | 58 | 117 | 0.0 | 0.0 | 0.00 | 0.94 | 0.00 | 95 | 1009.0 |
| 20260506235327 | 58 | 117 | 0.0 | 0.0 | 0.00 | 0.94 | 0.00 | 95 | 1009.0 |
| 20260506234814 | 58 | 117 | 0.0 | 0.0 | 0.00 | 0.94 | 0.00 | 95 | 1009.0 |
| 20260506234338 | 58 | 117 | 0.0 | 0.0 | 0.00 | 0.94 | 0.00 | 95 | 1009.0 |
| 20260506233346 | 58 | 117 | 0.0 | 0.0 | 0.00 | 0.94 | 0.00 | 95 | 1009.0 |
| 20260506232831 | 58 | 117 | 0.0 | 0.0 | 0.00 | 0.94 | 0.00 | 95 | 1009.0 |
| 20260506232315 | 58 | 117 | 0.0 | 0.0 | 0.00 | 0.94 | 0.00 | 95 | 1009.0 |
| 20260506231856 | 58 | 117 | 0.0 | 0.0 | 0.00 | 0.94 | 0.00 | 95 | 1008.8 |
| 20260506231355 | 58 | 117 | 0.0 | 0.0 | 0.00 | 0.94 | 0.00 | 95 | 1008.8 |
| 20260506230900 | 58 | 117 | 0.0 | 0.0 | 0.00 | 0.94 | 0.00 | 95 | 1008.8 |
| 20260506230417 | 58 | 117 | 0.0 | 0.0 | 0.00 | 0.94 | 0.00 | 95 | 1009.0 |
| 20260506225820 | 58 | 117 | 0.0 | 0.0 | 0.00 | 0.94 | 0.00 | 95 | 1009.0 |
| 20260506225326 | 58 | 117 | 0.0 | 0.0 | 0.00 | 0.94 | 0.00 | 95 | 1009.0 |
| 20260506224810 | 58 | 117 | 0.0 | 0.0 | 0.00 | 0.94 | 0.00 | 95 | 1009.0 |
| 20260506224316 | 58 | 117 | 0.0 | 0.0 | 0.00 | 0.94 | 0.00 | 95 | 1009.0 |
| 20260506223817 | 58 | 117 | 0.0 | 0.0 | 0.00 | 0.94 | 0.00 | 95 | 1009.0 |
| 20260506223341 | 59 | 117 | 0.0 | 0.0 | 0.00 | 0.94 | 0.00 | 95 | 1009.0 |
| 20260506222853 | 59 | 117 | 0.0 | 0.0 | 0.00 | 0.94 | 0.00 | 95 | 1009.0 |
| 20260506222333 | 59 | 117 | 0.0 | 0.0 | 0.00 | 0.94 | 0.00 | 95 | 1009.0 |
| 20260506221813 | 59 | 117 | 0.0 | 0.0 | 0.00 | 0.94 | 0.00 | 95 | 1008.9 |
| 20260506221317 | 59 | 117 | 0.0 | 0.0 | 0.00 | 0.94 | 0.00 | 95 | 1008.9 |
| 20260506220842 | 59 | 117 | 0.0 | 0.0 | 0.00 | 0.94 | 0.00 | 95 | 1008.9 |
| 20260506220401 | 59 | 117 | 0.0 | 0.0 | 0.00 | 0.94 | 0.19 | 95 | 1008.9 |
| 20260506215823 | 59 | 117 | 0.0 | 0.0 | 0.00 | 0.94 | 0.19 | 95 | 1008.9 |
| 20260506215324 | 59 | 117 | 0.0 | 0.0 | 0.00 | 0.94 | 0.19 | 95 | 1008.9 |
| 20260506214824 | 59 | 117 | 0.0 | 0.0 | 0.00 | 0.94 | 0.19 | 95 | 1008.7 |
| 20260506214405 | 59 | 117 | 0.0 | 0.0 | 0.00 | 0.94 | 0.19 | 95 | 1008.7 |
| 20260506213836 | 59 | 117 | 0.0 | 0.0 | 0.00 | 0.94 | 0.19 | 94 | 1008.7 |
| 20260506213334 | 59 | 117 | 0.0 | 0.0 | 0.00 | 0.94 | 0.19 | 94 | 1008.9 |
| 20260506212845 | 59 | 117 | 0.0 | 0.0 | 0.00 | 0.94 | 0.19 | 94 | 1008.9 |
| 20260506211833 | 60 | 117 | 0.0 | 0.0 | 0.00 | 0.94 | 0.19 | 95 | 1008.9 |
| 20260506211334 | 60 | 117 | 0.0 | 0.0 | 0.00 | 0.94 | 0.19 | 94 | 1008.9 |
| 20260506210816 | 60 | 118 | 0.0 | 0.0 | 0.00 | 0.94 | 0.19 | 94 | 1008.9 |
| 20260506210319 | 60 | 121 | 0.0 | 0.0 | 0.00 | 0.94 | 0.19 | 94 | 1008.7 |
| 20260506205818 | 60 | 121 | 0.0 | 0.0 | 0.00 | 0.94 | 0.19 | 94 | 1008.7 |
| 20260506205356 | 60 | 121 | 0.0 | 0.0 | 0.00 | 0.94 | 0.19 | 94 | 1008.7 |
| 20260506204359 | 60 | 121 | 0.0 | 0.0 | 0.00 | 0.94 | 0.19 | 94 | 1008.8 |
| 20260506203853 | 60 | 121 | 0.0 | 0.0 | 0.00 | 0.94 | 0.19 | 94 | 1008.8 |
| 20260506203351 | 60 | 121 | 0.0 | 0.0 | 0.00 | 0.94 | 0.19 | 94 | 1008.8 |
| 20260506202910 | 60 | 121 | 0.0 | 0.0 | 0.00 | 0.94 | 0.19 | 94 | 1008.8 |
| 20260506202408 | 60 | 123 | 0.0 | 0.0 | 0.00 | 0.94 | 0.19 | 94 | 1008.8 |
| 20260506201826 | 60 | 123 | 0.0 | 0.0 | 0.00 | 0.94 | 0.19 | 94 | 1008.5 |
| 20260506201319 | 61 | 123 | 0.0 | 0.0 | 0.00 | 0.94 | 0.19 | 94 | 1008.5 |
| 20260506200826 | 61 | 123 | 0.0 | 0.0 | 0.00 | 0.94 | 0.19 | 94 | 1008.5 |
| 20260506200318 | 61 | 123 | 0.0 | 0.0 | 0.00 | 0.94 | 0.19 | 94 | 1008.5 |
| 20260506195827 | 61 | 123 | 0.0 | 0.0 | 0.00 | 0.94 | 0.19 | 94 | 1008.5 |
| 20260506195314 | 61 | 123 | 0.0 | 0.0 | 0.00 | 0.94 | 0.19 | 94 | 1008.5 |
| 20260506194817 | 61 | 123 | 0.0 | 0.0 | 0.00 | 0.94 | 0.19 | 94 | 1008.4 |
| 20260506194321 | 61 | 123 | 0.0 | 0.0 | 0.00 | 0.94 | 0.19 | 94 | 1008.4 |
| 20260506193927 | 61 | 123 | 0.0 | 0.0 | 0.00 | 0.94 | 0.19 | 93 | 1008.4 |
| 20260506193844 | 61 | 123 | 0.0 | 0.0 | 0.00 | 0.94 | 0.19 | 93 | 1008.4 |
| 20260506193334 | 61 | 123 | 0.0 | 0.0 | 0.00 | 0.94 | 0.19 | 94 | 1008.2 |
| 20260506192922 | 61 | 123 | 0.0 | 0.0 | 0.00 | 0.94 | 0.19 | 94 | 1008.2 |
| 20260506192329 | 61 | 123 | 0.0 | 0.0 | 0.00 | 0.94 | 0.19 | 93 | 1008.2 |
| 20260506191819 | 61 | 123 | 0.0 | 0.0 | 0.00 | 0.94 | 0.19 | 93 | 1008.1 |
| 20260506191323 | 61 | 126 | 0.0 | 0.0 | 0.00 | 0.94 | 0.19 | 93 | 1008.1 |
| 20260506190925 | 61 | 136 | 0.0 | 0.0 | 0.00 | 0.94 | 0.19 | 93 | 1008.1 |
| 20260506190402 | 61 | 137 | 0.0 | 0.0 | 0.00 | 0.94 | 0.19 | 93 | 1008.0 |
| 20260506185823 | 62 | 147 | 0.0 | 0.0 | 0.00 | 0.94 | 0.19 | 93 | 1008.0 |
| 20260506185331 | 62 | 153 | 0.0 | 0.0 | 0.00 | 0.94 | 0.19 | 93 | 1008.0 |
| 20260506184819 | 62 | 153 | 0.0 | 0.0 | 0.00 | 0.94 | 0.19 | 93 | 1008.0 |
| 20260506184323 | 62 | 153 | 0.0 | 0.0 | 0.00 | 0.94 | 0.19 | 93 | 1008.0 |
| 20260506183829 | 62 | 153 | 0.0 | 0.0 | 0.00 | 0.94 | 0.19 | 93 | 1008.0 |
| 20260506182858 | 62 | 153 | 0.0 | 0.0 | 0.00 | 0.94 | 0.19 | 92 | 1007.8 |
| 20260506182417 | 62 | 153 | 0.0 | 0.0 | 0.00 | 0.94 | 0.19 | 92 | 1007.8 |
| 20260506181855 | 63 | 153 | 0.0 | 0.0 | 0.00 | 0.94 | 0.19 | 92 | 1007.6 |
| 20260506181325 | 63 | 153 | 0.0 | 0.0 | 0.00 | 0.94 | 0.19 | 92 | 1007.6 |
| 20260506180825 | 63 | 153 | 0.0 | 0.0 | 0.00 | 0.94 | 0.19 | 92 | 1007.6 |
| 20260506180426 | 63 | 153 | 0.0 | 0.0 | 0.00 | 0.94 | 0.19 | 91 | 1007.4 |
| 20260506180343 | 63 | 153 | 0.0 | 0.0 | 0.00 | 0.94 | 0.19 | 91 | 1007.4 |
| 20260506175904 | 63 | 153 | 0.0 | 0.0 | 0.00 | 0.94 | 0.19 | 91 | 1007.4 |
| 20260506175328 | 63 | 153 | 0.0 | 0.0 | 0.00 | 0.94 | 0.19 | 91 | 1007.4 |
| 20260506174850 | 63 | 153 | 0.0 | 0.0 | 0.00 | 0.94 | 0.19 | 91 | 1007.5 |
| 20260506174414 | 63 | 153 | 0.0 | 0.0 | 0.00 | 0.94 | 0.19 | 91 | 1007.5 |
| 20260506173913 | 64 | 153 | 0.0 | 0.0 | 0.00 | 0.94 | 0.19 | 90 | 1007.5 |
| 20260506173431 | 64 | 153 | 0.0 | 0.0 | 0.00 | 0.94 | 0.19 | 90 | 1007.5 |
| 20260506172850 | 64 | 153 | 0.0 | 0.0 | 0.00 | 0.94 | 0.19 | 90 | 1007.5 |
| 20260506172338 | 64 | 153 | 0.0 | 0.0 | 0.00 | 0.94 | 0.19 | 90 | 1007.5 |
| 20260506171838 | 64 | 153 | 0.0 | 0.0 | 0.00 | 0.94 | 0.19 | 90 | 1007.4 |
| 20260506171328 | 63 | 153 | 0.0 | 0.0 | 0.00 | 0.94 | 0.19 | 89 | 1007.4 |
| 20260506170813 | 63 | 153 | 0.0 | 0.0 | 0.00 | 0.94 | 0.19 | 89 | 1007.4 |
| 20260506170318 | 64 | 153 | 0.0 | 0.0 | 0.00 | 0.94 | 0.19 | 89 | 1007.4 |
| 20260506165819 | 63 | 153 | 0.0 | 0.0 | 0.00 | 0.94 | 0.19 | 89 | 1007.4 |
| 20260506165420 | 63 | 153 | 0.0 | 0.0 | 0.00 | 0.94 | 0.19 | 89 | 1007.4 |
| 20260506164823 | 63 | 153 | 0.0 | 0.0 | 0.00 | 0.94 | 0.19 | 89 | 1007.5 |
| 20260506164323 | 63 | 153 | 0.0 | 0.0 | 0.00 | 0.94 | 0.19 | 89 | 1007.5 |
| 20260506163827 | 63 | 153 | 0.0 | 0.0 | 0.00 | 0.94 | 0.19 | 89 | 1007.5 |
| 20260506163425 | 63 | 153 | 0.0 | 3.5 | 0.00 | 0.94 | 0.19 | 89 | 1007.6 |
| 20260506162828 | 63 | 153 | 1.7 | 3.5 | 0.00 | 0.94 | 0.19 | 89 | 1007.6 |
| 20260506162333 | 64 | 154 | 0.9 | 5.2 | 0.00 | 0.94 | 0.19 | 89 | 1007.6 |
| 20260506161930 | 63 | 154 | 1.7 | 5.2 | 0.00 | 0.94 | 0.19 | 90 | 1007.5 |
| 20260506161327 | 64 | 155 | 1.7 | 6.1 | 0.00 | 0.94 | 0.19 | 90 | 1007.5 |
| 20260506160911 | 64 | 156 | 0.9 | 6.1 | 0.00 | 0.94 | 0.19 | 91 | 1007.5 |
| 20260506160332 | 63 | 132 | 0.0 | 0.0 | 0.00 | 0.98 | 0.19 | 91 | 1007.5 |
| 20260506155935 | 63 | 130 | 0.0 | 0.0 | 0.00 | 0.98 | 0.19 | 91 | 1007.5 |
| 20260506155322 | 62 | 128 | 0.0 | 0.0 | 0.00 | 0.98 | 0.19 | 91 | 1007.5 |
| 20260506154903 | 62 | 128 | 0.0 | 0.0 | 0.00 | 0.98 | 0.19 | 92 | 1007.3 |
| 20260506154820 | 62 | 128 | 0.0 | 0.0 | 0.00 | 0.98 | 0.19 | 92 | 1007.3 |
| 20260506154324 | 62 | 128 | 0.0 | 0.0 | 0.00 | 0.98 | 0.19 | 92 | 1007.3 |
| 20260506153852 | 62 | 128 | 0.0 | 0.0 | 0.00 | 0.98 | 0.19 | 93 | 1007.3 |
| 20260506153432 | 62 | 128 | 0.0 | 0.0 | 0.00 | 0.98 | 0.19 | 93 | 1007.5 |
| 20260506152910 | 62 | 128 | 0.0 | 0.0 | 0.00 | 0.98 | 0.19 | 93 | 1007.5 |
| 20260506152326 | 62 | 124 | 0.0 | 0.0 | 0.00 | 0.98 | 0.19 | 93 | 1007.5 |
| 20260506151825 | 62 | 124 | 0.0 | 0.0 | 0.00 | 0.98 | 0.19 | 93 | 1007.5 |
| 20260506151330 | 62 | 124 | 0.0 | 0.0 | 0.00 | 0.98 | 0.19 | 93 | 1007.5 |
| 20260506150405 | 62 | 123 | 0.9 | 4.3 | 0.08 | 1.02 | 0.19 | 93 | 1007.4 |
| 20260506145840 | 63 | 115 | 0.0 | 0.0 | 0.16 | 1.02 | 0.19 | 93 | 1007.4 |
| 20260506145339 | 63 | 91 | 0.0 | 0.0 | 0.20 | 1.02 | 0.19 | 93 | 1007.4 |
| 20260506144819 | 62 | 91 | 0.0 | 0.0 | 0.24 | 1.02 | 0.19 | 93 | 1007.5 |
| 20260506144419 | 62 | 91 | 0.0 | 5.2 | 0.31 | 1.02 | 0.19 | 93 | 1007.5 |
| 20260506143837 | 62 | 91 | 2.6 | 5.2 | 0.39 | 1.02 | 0.19 | 93 | 1007.5 |
| 20260506143319 | 62 | 88 | 0.0 | 5.2 | 0.51 | 1.02 | 0.19 | 93 | 1007.3 |
| 20260506142840 | 62 | 88 | 0.0 | 5.2 | 0.55 | 1.02 | 0.19 | 93 | 1007.3 |
| 20260506142419 | 62 | 90 | 2.6 | 6.1 | 0.59 | 1.02 | 0.19 | 93 | 1007.3 |
| 20260506141819 | 62 | 91 | 2.6 | 6.1 | 0.67 | 1.02 | 0.19 | 93 | 1007.7 |
| 20260506141326 | 62 | 99 | 2.6 | 6.1 | 0.71 | 1.02 | 0.19 | 93 | 1007.7 |
| 20260506140833 | 62 | 104 | 3.5 | 6.1 | 0.67 | 0.98 | 0.18 | 92 | 1007.7 |
| 20260506140333 | 62 | 98 | 3.5 | 6.1 | 0.63 | 0.94 | 0.17 | 92 | 1008.0 |
| 20260506135816 | 63 | 132 | 0.0 | 0.0 | 0.55 | 0.87 | 0.16 | 92 | 1008.0 |
| 20260506135317 | 63 | 132 | 0.0 | 0.0 | 0.51 | 0.83 | 0.15 | 91 | 1008.0 |
| 20260506134821 | 63 | 134 | 0.0 | 3.5 | 0.47 | 0.79 | 0.14 | 91 | 1008.0 |
| 20260506133832 | 63 | 130 | 0.0 | 4.3 | 0.31 | 0.63 | 0.11 | 90 | 1008.0 |
| 20260506133333 | 63 | 130 | 0.9 | 5.2 | 0.20 | 0.51 | 0.09 | 89 | 1008.1 |
| 20260506132817 | 63 | 131 | 2.6 | 6.1 | 0.16 | 0.47 | 0.08 | 89 | 1008.1 |
| 20260506132339 | 63 | 129 | 3.5 | 6.1 | 0.08 | 0.39 | 0.06 | 88 | 1008.1 |
| 20260506131822 | 64 | 127 | 0.0 | 7.0 | 0.04 | 0.35 | 0.06 | 87 | 1008.1 |
| 20260506131349 | 64 | 128 | 2.6 | 7.0 | 0.00 | 0.31 | 0.05 | 87 | 1008.1 |
| 20260506130857 | 64 | 108 | 1.7 | 6.1 | 0.00 | 0.31 | 0.05 | 87 | 1008.1 |
| 20260506130416 | 64 | 170 | 4.3 | 6.1 | 0.00 | 0.31 | 0.05 | 86 | 1008.3 |
| 20260506125818 | 64 | 128 | 2.6 | 7.0 | 0.00 | 0.31 | 0.05 | 87 | 1008.3 |
| 20260506125323 | 64 | 124 | 3.5 | 8.7 | 0.00 | 0.31 | 0.05 | 86 | 1008.3 |
| 20260506124849 | 64 | 110 | 3.5 | 8.7 | 0.00 | 0.31 | 0.05 | 86 | 1008.3 |
| 20260506124406 | 64 | 177 | 2.6 | 7.0 | 0.00 | 0.31 | 0.05 | 87 | 1008.3 |
| 20260506123845 | 64 | 148 | 3.5 | 7.0 | 0.00 | 0.31 | 0.05 | 86 | 1008.3 |
| 20260506123314 | 64 | 163 | 3.5 | 7.8 | 0.00 | 0.31 | 0.05 | 87 | 1008.3 |
| 20260506122938 | 64 | 131 | 2.6 | 10.4 | 0.00 | 0.31 | 0.05 | 86 | 1008.3 |
| 20260506122315 | 64 | 130 | 4.3 | 10.4 | 0.00 | 0.31 | 0.05 | 86 | 1008.3 |
| 20260506121330 | 64 | 101 | 3.5 | 7.0 | 0.00 | 0.31 | 0.05 | 88 | 1008.5 |
| 20260506120931 | 64 | 139 | 0.9 | 5.2 | 0.00 | 0.31 | 0.05 | 88 | 1008.5 |
| 20260506120352 | 64 | 132 | 2.6 | 5.2 | 0.00 | 0.39 | 0.05 | 88 | 1008.5 |
| 20260506115834 | 64 | 123 | 0.9 | 4.3 | 0.00 | 0.39 | 0.05 | 89 | 1008.5 |
| 20260506115314 | 63 | 163 | 0.0 | 0.0 | 0.04 | 0.39 | 0.05 | 89 | 1008.5 |
| 20260506114842 | 63 | 171 | 0.0 | 0.0 | 0.04 | 0.39 | 0.05 | 89 | 1008.7 |
| 20260506114407 | 63 | 171 | 0.0 | 0.0 | 0.04 | 0.39 | 0.05 | 89 | 1008.7 |
| 20260506113905 | 63 | 173 | 0.0 | 0.0 | 0.04 | 0.39 | 0.05 | 89 | 1008.7 |
| 20260506113346 | 62 | 173 | 0.0 | 0.0 | 0.04 | 0.39 | 0.05 | 89 | 1008.9 |
| 20260506112906 | 63 | 174 | 0.0 | 0.0 | 0.08 | 0.39 | 0.05 | 92 | 1008.9 |
| 20260506112330 | 63 | 178 | 0.0 | 0.0 | 0.08 | 0.39 | 0.05 | 90 | 1008.9 |
| 20260506111911 | 62 | 180 | 0.0 | 0.0 | 0.08 | 0.39 | 0.05 | 90 | 1008.9 |
| 20260506111330 | 62 | 180 | 0.0 | 0.0 | 0.08 | 0.39 | 0.05 | 90 | 1008.9 |
| 20260506110843 | 62 | 180 | 0.0 | 0.0 | 0.08 | 0.39 | 0.05 | 90 | 1008.9 |
| 20260506110347 | 62 | 180 | 0.0 | 0.0 | 0.08 | 0.47 | 0.05 | 90 | 1009.0 |
| 20260506105830 | 63 | 181 | 0.0 | 0.0 | 0.08 | 0.47 | 0.05 | 90 | 1009.0 |
| 20260506104903 | 62 | 181 | 0.0 | 0.0 | 0.04 | 0.43 | 0.04 | 89 | 1009.2 |
| 20260506104402 | 62 | 181 | 0.0 | 0.0 | 0.08 | 0.43 | 0.04 | 89 | 1009.2 |
| 20260506103841 | 63 | 183 | 0.0 | 0.0 | 0.08 | 0.43 | 0.04 | 88 | 1009.2 |
| 20260506103403 | 62 | 178 | 0.0 | 3.5 | 0.04 | 0.39 | 0.03 | 88 | 1009.2 |
| 20260506102845 | 62 | 179 | 0.0 | 3.5 | 0.04 | 0.39 | 0.03 | 88 | 1009.2 |
| 20260506102404 | 62 | 159 | 0.0 | 0.0 | 0.04 | 0.39 | 0.03 | 88 | 1009.2 |
| 20260506101833 | 62 | 159 | 0.0 | 5.2 | 0.04 | 0.39 | 0.03 | 87 | 1009.5 |
| 20260506101335 | 62 | 159 | 0.9 | 5.2 | 0.04 | 0.39 | 0.03 | 87 | 1009.5 |
| 20260506100837 | 62 | 168 | 0.9 | 5.2 | 0.04 | 0.39 | 0.03 | 87 | 1009.5 |